Regional Weather Roundup
Issued by NWS Little Rock, AR

Home | Current Version | Previous Version | Graphics & Text | Print | Product List | Glossary Off
Versions: 1 2 3 4 5 6 7 8 9 10 11 12 13 14 15 16 17 18 19 20 21 22 23 24 25 26 27 28 29 30 31 32 33 34 35 36 37 38 39 40 41 42 43 44 45 46 47 48 49 50

000
ASUS44 KLZK 221105
RWRLZK

WEATHER ROUNDUP FOR ARKANSAS
NATIONAL WEATHER SERVICE LITTLE ROCK AR
500 AM CST WED FEB 22 2017

NOTE: "FAIR" INDICATES FEW OR NO CLOUDS BELOW 12,000 FEET WITH NO
SIGNIFICANT WEATHER AND/OR OBSTRUCTIONS TO VISIBILITY.

ARZ001-003-010-029-221200-
NORTHWEST ARKANSAS

CITY           SKY/WX    TMP DP  RH WIND       PRES   REMARKS
FAYETTEVILLE   CLOUDY    54  54 100 CALM      29.91R
FORT SMITH     FOG       49  48  97 CALM      29.89S VSB 1/4
HARRISON       CLOUDY    56  53  90 SW3       29.90S
BENTONVILLE    CLOUDY    55  54  94 S5        29.91S
ROGERS         CLOUDY    55  54  96 S7        29.91S
SILOAM SPGS    CLOUDY    46  45  93 E7        29.90S VSB 1/4
HIGHFILL       CLOUDY    51  51 100 S3        29.90S FOG
$$

ARZ004-005-016-221200-
NORTH CENTRAL ARKANSAS

CITY           SKY/WX    TMP DP  RH WIND       PRES   REMARKS
BATESVILLE     CLOUDY    57  55  94 CALM      29.89F
FLIPPIN        CLOUDY    52  48  87 CALM      29.88S VSB<1/4
MTN HOME       FOG       54  54 100 CALM      29.89R VSB 3/4
$$

ARZ040-041-221200-
WEST CENTRAL ARKANSAS

CITY           SKY/WX    TMP DP  RH WIND       PRES   REMARKS
MENA           PTCLDY    55  55 100 CALM      29.90S
MOUNT IDA      FOG       57  55  93 CALM      29.87R VSB 1/2
$$

ARZ009-017-025-026-028-221200-
NORTHEAST ARKANSAS

CITY           SKY/WX    TMP DP  RH WIND       PRES   REMARKS
CORNING        FOG       57  57 100 E5        29.90F VSB 3/4
JONESBORO      CLOUDY    60  58  92 NE3       29.89S
NEWPORT        CLOUDY    57  57 100 NE6       29.89S FOG
WALNUT RIDGE   CLOUDY    57  55  94 CALM      29.89S
BLYTHEVILLE    FOG       56  56 100 N5        29.90S VSB 3/4
$$

ARZ022-023-033-042-044-221200-
CENTRAL ARKANSAS

CITY           SKY/WX    TMP DP  RH WIND       PRES   REMARKS
LITTLE ROCK    FOG       55  55 100 N5        29.89R VSB 1/4
N LITTLE ROCK    N/A     55  55  98 CALM      29.90R
JACKSONVILLE   FOG       55  55 100 CALM      29.88S VSB 1/4
SEARCY         FOG       54  54 100 N3        29.89F VSB 1/2
HOT SPRINGS    CLOUDY    59  57  93 NE5       29.89S
RUSSELLVILLE   FOG       49  49 100 CALM      29.88F VSB 1/2
$$

ARZ036-221200-
EAST ARKANSAS

CITY           SKY/WX    TMP DP  RH WIND       PRES   REMARKS
WEST MEMPHIS   LGT RAIN  58  58 100 N7        29.88R
$$

ARZ050-053-066-070-073-221200-
SOUTHWEST ARKANSAS

CITY           SKY/WX    TMP DP  RH WIND       PRES   REMARKS
ARKADELPHIA      N/A    N/A N/A N/A MISG        N/A
CAMDEN         CLOUDY    57  55  94 N3        29.88S
TEXARKANA      CLEAR     54  54 100 CALM      29.89R
EL DORADO      CLOUDY    58  57  97 N6        29.88R
DE QUEEN       PTCLDY    47  47 100 CALM      29.88R
$$

ARZ056-057-069-221200-
SOUTHEAST ARKANSAS

CITY           SKY/WX    TMP DP  RH WIND       PRES   REMARKS
PINE BLUFF     CLOUDY    57  57 100 N6        29.88S
STUTTGART      CLOUDY    55  48  76 N5        29.89S VSB 1/4
MONTICELLO     PTCLDY    57  55  93 CALM      29.87S

$$





USA.gov is the U.S. government's official web portal to all federal, state and local government web resources and services.